Location: Wien
(48.2082°N, 16.3738°E)
Time: 11:38:49
(UTC+01:00)

Transit 2A - Visible Passes

Search period start: 22 February 2024 00:00
Search period end: 03 March 2024 00:00
Orbit: 600 x 953 km, 66.7° (Epoch: 22 February)

Date Brightness Start Highest point End Pass type
(mag) Time Alt. Az. Time Alt. Az. Time Alt. Az.
22 Feb 8.6 02:46:48 14° NE 02:46:48 14° NE 02:48:36 10° ENE visible
22 Feb 6.3 04:27:15 26° NNW 04:29:49 58° NE 04:34:57 10° SE visible
22 Feb 7.0 06:08:46 10° WNW 06:12:39 24° WSW 06:16:48 10° SSW visible
23 Feb 6.9 03:53:39 36° NNE 03:54:44 42° NE 03:59:37 10° ESE visible
23 Feb 6.5 05:34:07 14° NW 05:37:46 34° WSW 05:42:31 10° S visible
23 Feb 8.1 20:16:22 10° SSW 20:16:40 12° SSW 20:16:40 12° SSW visible
24 Feb 7.5 03:20:12 30° ENE 03:20:12 30° ENE 03:24:08 10° ESE visible
24 Feb 6.0 05:00:41 29° WNW 05:02:51 49° WSW 05:07:57 10° SSE visible
24 Feb 6.5 19:41:29 10° SSW 19:44:05 34° S 19:44:05 34° S visible
25 Feb 8.4 02:46:56 16° E 02:46:56 16° E 02:48:28 10° E visible
25 Feb 5.7 04:27:26 67° W 04:27:53 72° WSW 04:33:10 10° SSE visible
25 Feb 7.7 06:08:56 10° W 06:10:16 11° WSW 06:11:39 10° WSW visible
25 Feb 6.0 19:06:49 10° S 19:10:51 37° ESE 19:11:25 36° E visible
25 Feb 7.8 20:50:06 10° WSW 20:51:57 21° W 20:51:57 21° W visible
26 Feb 6.6 03:54:22 47° SE 03:54:22 47° SE 03:58:11 10° SE visible
26 Feb 7.3 05:34:52 16° W 05:35:30 17° WSW 05:38:46 10° SSW visible
26 Feb 6.6 18:32:25 10° SSE 18:35:59 25° ESE 18:38:39 14° ENE visible
26 Feb 6.5 20:14:40 10° WSW 20:18:48 43° NW 20:19:10 42° NNW visible
27 Feb 8.0 03:21:30 19° SE 03:21:30 19° SE 03:23:01 10° SE visible
27 Feb 7.2 05:02:01 22° SW 05:02:01 22° SW 05:04:54 10° SSW visible
27 Feb 5.9 19:39:25 10° SW 19:43:43 63° NW 19:46:13 24° NNE visible
27 Feb 8.5 21:25:19 10° WNW 21:26:43 13° NW 21:26:43 13° NW visible
28 Feb 7.9 04:29:21 16° S 04:29:21 16° S 04:30:36 10° S visible
28 Feb 5.4 19:04:21 10° SSW 19:08:42 87° ESE 19:13:05 10° NE visible
28 Feb 8.0 20:49:22 10° WNW 20:52:24 18° NW 20:53:34 17° NNW visible
29 Feb 5.6 18:29:28 10° SSW 18:33:43 57° ESE 18:38:01 10° NE visible
29 Feb 7.7 20:13:37 10° W 20:17:08 23° NW 20:20:15 12° NNE visible
01 Mar 7.3 19:38:02 10° WSW 19:41:55 31° NW 19:45:54 10° NNE visible
02 Mar 6.7 19:02:37 10° WSW 19:06:45 43° NW 19:11:00 10° NNE visible
02 Mar 8.5 20:49:25 10° NW 20:51:04 12° NNW 20:52:45 10° N visible
